[[{"header":{"parameterUnit":"m.s-1","parameterCategory":1,"la1":30.2991,"la2":30.254,"lo1":-89.0895,"lo2":-89.0444,"dy":0.0017,"dx":0.0017,"nx":28,"ny":28,"refTime":"2024-03-28T03:00:00:Z","depth":0,"parameterNumber":2,"parameterNumberName":"U-component_of_WINDS"},"data":[0,0,0,0,0,0,0,0,0,0,0,0,0,0,0,0,0,0,0,0,0,0,0,0,0,0,0,0,0,0,0,0,0,0,0,0,0,0,0,0,0,0,0,0,0,0,0,0,0,0,0,0,0,0,0,0,0,0,1.6039,1.6039,0,1.6054,1.6054,1.6054,1.6047,1.6047,1.6046,1.6046,1.6061,1.6062,1.6063,0,0,0,0,0,0,0,0,0,0,0,0,0,1.6007,1.6008,1.6039,1.6039,1.604,1.6054,1.6054,1.6054,1.6047,1.6047,1.6046,1.6046,1.6061,1.6062,1.6063,0,0,0,0,0,0,0,0,0,0,0,0,0,1.6021,1.6008,1.6039,1.6038,1.6038,1.6054,1.6054,1.6054,1.6047,1.6047,1.6046,1.6046,1.6061,1.6062,1.6063,1.6081,0,0,1.6067,1.6067,0,0,0,0,0,0,0,0,1.6021,1.6023,1.6038,1.6038,1.6038,1.6048,1.6048,1.6063,1.6047,1.6044,1.6046,1.6045,1.6057,1.6059,1.6063,1.6082,1.6083,1.6067,1.6067,1.6068,1.6068,0,0,0,0,0,0,0,1.602,1.6022,1.6045,1.6038,1.6038,1.6037,1.6039,1.6051,1.6054,1.6044,1.6044,1.6045,1.6057,1.6062,1.6063,1.6083,1.6067,1.6068,1.6068,1.6069,1.612,1.6121,0,0,0,0,0,0,1.6018,1.6021,1.6045,1.6046,1.6028,1.6038,1.604,1.6045,1.6053,1.6054,1.6046,1.6045,1.606,1.6062,1.6064,1.6087,1.6068,1.6069,1.607,1.6119,1.612,1.6121,0,0,0,0,0,0,1.6018,1.6021,1.6044,1.6033,1.6036,1.6039,1.6046,1.6046,1.605,1.6055,1.6055,1.605,1.606,1.6062,1.6077,1.6087,1.6069,1.607,1.6119,1.612,1.6121,1.6132,0,0,0,0,0,0,1.6017,1.602,1.6027,1.6033,1.6037,1.6057,1.6046,1.6047,1.6052,1.6051,1.6059,1.6059,1.6059,1.6076,1.6079,1.6088,1.6071,1.6118,1.6119,1.612,1.6131,1.6133,1.6135,0,0,0,0,0,1.6016,1.6029,1.6027,1.603,1.6045,1.6057,1.6059,1.6059,1.6053,1.606,1.6063,1.6059,1.6086,1.6077,1.608,1.6091,1.6117,1.6119,1.612,1.613,1.6133,1.6135,0,0,0,0,0,0,1.6023,1.603,1.6028,1.6043,1.605,1.6056,1.6065,1.6062,1.6071,1.6069,1.6069,1.6071,1.6087,1.609,1.6081,1.611,1.6101,1.6103,1.6107,1.611,1.6112,1.611,1.6072,0,0,0,0,0,1.6027,1.6036,1.6042,1.6055,1.6059,1.6061,1.6067,1.6066,1.6073,1.6076,1.608,1.6087,1.6097,1.6104,1.6113,1.6132,1.6134,1.614,1.6143,1.6144,1.6146,1.6158,1.6161,1.6126,1.6126,1.6126,0,0,1.6034,1.6039,1.6044,1.6057,1.6062,1.6072,1.6063,1.6074,1.6082,1.6077,1.6092,1.6096,1.6104,1.6121,1.6129,1.6125,1.6157,1.6146,1.6148,1.6149,1.616,1.6163,1.6166,1.6127,1.6127,1.6127,0,0,1.6052,1.6056,1.6069,1.6074,1.6082,1.6084,1.6087,1.6095,1.6097,1.6112,1.6109,1.6119,1.6136,1.6142,1.6148,1.6171,1.6168,1.6174,1.6186,1.6197,1.62,1.6202,1.6211,1.6214,1.6176,1.6176,1.6176,0,1.606,1.6075,1.6075,1.6087,1.6093,1.609,1.6103,1.6108,1.6119,1.6124,1.6119,1.6141,1.6146,1.6166,1.6172,1.6176,1.618,1.6173,1.6199,1.6202,1.6204,1.6213,1.6216,1.6177,1.6177,1.6177,1.6177,0,1.6085,1.6095,1.6104,1.6115,1.6122,1.6135,1.6138,1.6145,1.6145,1.6148,1.6164,1.6171,1.6182,1.6187,1.6186,1.6207,1.6204,1.6199,1.619,1.6208,1.6216,1.6219,1.6178,1.6178,1.6177,1.6177,0,0,1.6106,1.6118,1.6122,1.6127,1.6137,1.6145,1.6159,1.617,1.6177,1.6185,1.6196,1.6212,1.6208,1.6215,1.6215,1.6225,1.6244,1.6219,1.622,1.6224,1.6268,1.6272,1.6275,1.6243,1.6243,1.6244,1.6268,0,1.6125,1.6147,1.6149,1.6169,1.618,1.6178,1.619,1.6198,1.6201,1.6212,1.6216,1.6227,1.6221,1.6225,1.6235,1.624,1.6253,1.6238,1.6254,1.6254,1.6251,1.6279,1.6282,1.6305,1.6271,1.6271,1.6272,0,1.6149,1.6159,1.618,1.619,1.6195,1.6205,1.6217,1.6226,1.6236,1.6238,1.6246,1.6246,1.626,1.6251,1.6272,1.6262,1.6269,1.6272,1.6273,1.6274,1.6264,1.6281,1.6311,1.6315,1.6277,1.6276,1.6276,0,1.6163,1.6182,1.6197,1.6202,1.6214,1.6221,1.6226,1.6235,1.6243,1.6253,1.6258,1.627,1.6277,1.6287,1.629,1.6283,1.6311,1.6302,1.6314,1.6314,1.6319,1.6319,1.6351,1.6324,1.6324,1.6324,1.6324,0,1.6184,1.6197,1.6204,1.6213,1.6229,1.6231,1.6247,1.6252,1.626,1.6272,1.6271,1.6282,1.6286,1.6298,1.6301,1.6318,1.6321,1.6324,1.6324,1.6324,1.6323,1.6328,1.6326,1.6325,1.6325,1.6324,1.6324,0,1.6201,1.6206,1.6223,1.6233,1.6236,1.6247,1.6257,1.6267,1.6271,1.6285,1.6289,1.6296,1.631,1.6315,1.6332,1.6334,1.6354,1.6353,1.6351,1.6351,1.6363,1.6361,1.6398,1.6404,1.6373,1.6374,1.6374,0,1.6214,1.6224,1.6236,1.6244,1.6249,1.6262,1.6269,1.6274,1.6282,1.6295,1.6303,1.6317,1.6329,1.6351,1.6358,1.6372,1.6372,1.6384,1.6373,1.6373,1.6372,1.6371,1.6373,1.6385,1.6386,1.6386,1.6386,0,1.6236,1.6238,1.6249,1.6262,1.6272,1.6282,1.6292,1.6298,1.6304,1.6314,1.6328,1.6337,1.6355,1.6369,1.6384,1.639,1.6389,1.639,1.6393,1.6392,1.639,1.6392,1.6356,1.6388,1.6388,1.6388,1.6388,1.6388,1.6251,1.6261,1.6271,1.6284,1.6293,1.6302,1.6312,1.6319,1.6331,1.6346,1.6348,1.6364,1.6375,1.6394,1.6402,1.6415,1.6411,1.6416,1.6418,1.6419,1.642,1.6389,1.6417,1.6417,1.6417,1.6417,1.6417,0,1.6273,1.6281,1.6293,1.6307,1.6318,1.6317,1.6328,1.6338,1.6352,1.6362,1.6374,1.6392,1.6406,1.6415,1.643,1.6439,1.6439,1.6443,1.6442,1.6444,1.6422,1.6417,1.6442,1.6442,1.6442,1.6442,1.6442,1.6442,1.6286,1.6303,1.6307,1.6328,1.6336,1.6351,1.6358,1.6368,1.6376,1.6396,1.6408,1.6414,1.6425,1.6441,1.6455,1.6457,1.6463,1.6466,1.6469,1.6448,1.6445,1.6442,1.6438,1.6468,1.6468,1.649,1.649,1.649]},{"header":{"parameterUnit":"m.s-1","parameterCategory":1,"la1":30.2991,"la2":30.254,"lo1":-89.0895,"lo2":-89.0444,"dy":0.0017,"dx":0.0017,"nx":28,"ny":28,"refTime":"2024-03-28T03:00:00:Z","depth":0,"parameterNumber":3,"parameterNumberName":"V-component_of_WINDS"},"data":[0,0,0,0,0,0,0,0,0,0,0,0,0,0,0,0,0,0,0,0,0,0,0,0,0,0,0,0,0,0,0,0,0,0,0,0,0,0,0,0,0,0,0,0,0,0,0,0,0,0,0,0,0,0,0,0,0,0,-5.1314,-5.1314,0,-5.1342,-5.1343,-5.1343,-5.1275,-5.1273,-5.1271,-5.1269,-5.1295,-5.1297,-5.13,0,0,0,0,0,0,0,0,0,0,0,0,0,-5.12,-5.1203,-5.1314,-5.1314,-5.1315,-5.1342,-5.1343,-5.1343,-5.1276,-5.1273,-5.127,-5.1268,-5.1294,-5.1297,-5.13,0,0,0,0,0,0,0,0,0,0,0,0,0,-5.1241,-5.1203,-5.1314,-5.1285,-5.1282,-5.1342,-5.1343,-5.1343,-5.1276,-5.1273,-5.127,-5.1267,-5.1293,-5.1297,-5.1301,-5.1389,0,0,-5.1313,-5.1315,0,0,0,0,0,0,0,0,-5.1239,-5.1245,-5.1289,-5.1287,-5.1284,-5.1302,-5.1312,-5.1358,-5.1277,-5.1278,-5.1269,-5.1265,-5.13,-5.1303,-5.1315,-5.1391,-5.1392,-5.1313,-5.1316,-5.1317,-5.1319,0,0,0,0,0,0,0,-5.1236,-5.1244,-5.1325,-5.1289,-5.1287,-5.1269,-5.1272,-5.132,-5.1306,-5.1278,-5.1273,-5.1278,-5.1298,-5.1311,-5.1315,-5.1392,-5.1313,-5.1317,-5.1319,-5.1321,-5.1543,-5.1547,0,0,0,0,0,0,-5.1237,-5.1242,-5.1324,-5.1326,-5.1253,-5.1274,-5.1276,-5.1299,-5.1306,-5.1304,-5.128,-5.1274,-5.1306,-5.131,-5.1316,-5.1421,-5.1317,-5.1321,-5.1323,-5.154,-5.1544,-5.1548,0,0,0,0,0,0,-5.1235,-5.1245,-5.1323,-5.1283,-5.1291,-5.1279,-5.1306,-5.1302,-5.1315,-5.1308,-5.1304,-5.1297,-5.1304,-5.131,-5.1372,-5.1421,-5.1323,-5.1327,-5.1536,-5.1541,-5.1546,-5.1632,0,0,0,0,0,0,-5.1232,-5.1245,-5.1279,-5.1284,-5.1294,-5.138,-5.1309,-5.1305,-5.1323,-5.1315,-5.1322,-5.132,-5.1302,-5.1367,-5.1376,-5.1425,-5.133,-5.1531,-5.1538,-5.1544,-5.1625,-5.164,-5.1652,0,0,0,0,0,-5.1228,-5.1301,-5.1281,-5.1291,-5.1336,-5.1383,-5.1388,-5.1366,-5.1327,-5.1361,-5.1356,-5.132,-5.1414,-5.1373,-5.1384,-5.1434,-5.1528,-5.1536,-5.1544,-5.1619,-5.1637,-5.1652,0,0,0,0,0,0,-5.1301,-5.1301,-5.1279,-5.1356,-5.137,-5.1371,-5.1413,-5.1386,-5.141,-5.1402,-5.1373,-5.1375,-5.1443,-5.1444,-5.1399,-5.1521,-5.1464,-5.1475,-5.1518,-5.1535,-5.1548,-5.1547,-5.1333,0,0,0,0,0,-5.1326,-5.1365,-5.1362,-5.143,-5.1439,-5.1425,-5.1445,-5.1427,-5.144,-5.1445,-5.1445,-5.1458,-5.1491,-5.1513,-5.1542,-5.1625,-5.1625,-5.1664,-5.1678,-5.169,-5.1699,-5.1744,-5.1761,-5.1574,-5.1574,-5.1573,0,0,-5.1377,-5.1383,-5.1409,-5.1445,-5.1454,-5.1494,-5.1431,-5.1475,-5.1505,-5.1451,-5.1511,-5.1511,-5.1524,-5.1597,-5.1629,-5.1601,-5.1751,-5.17,-5.1709,-5.1712,-5.1754,-5.1771,-5.1787,-5.1579,-5.1578,-5.1577,0,0,-5.1493,-5.15,-5.1559,-5.1569,-5.1584,-5.1575,-5.1589,-5.1595,-5.1594,-5.1653,-5.1614,-5.1648,-5.1705,-5.1716,-5.1729,-5.1851,-5.1819,-5.1861,-5.1933,-5.1977,-5.1992,-5.2005,-5.2049,-5.2065,-5.187,-5.1871,-5.1871,0,-5.1555,-5.1615,-5.1591,-5.164,-5.1658,-5.1612,-5.1671,-5.1682,-5.1705,-5.1718,-5.1686,-5.1757,-5.1763,-5.1838,-5.1868,-5.188,-5.1895,-5.186,-5.1992,-5.2005,-5.2016,-5.2058,-5.2075,-5.1876,-5.1875,-5.1875,-5.1874,0,-5.1691,-5.1734,-5.1779,-5.1805,-5.1827,-5.188,-5.1864,-5.189,-5.187,-5.1864,-5.1925,-5.1931,-5.1961,-5.1977,-5.1958,-5.2051,-5.2033,-5.1997,-5.1939,-5.204,-5.2079,-5.2095,-5.1883,-5.1881,-5.188,-5.1878,0,0,-5.1852,-5.1866,-5.1883,-5.1894,-5.1908,-5.194,-5.1992,-5.2023,-5.2046,-5.2063,-5.2106,-5.2156,-5.2123,-5.2138,-5.2119,-5.2158,-5.2255,-5.2117,-5.2117,-5.2144,-5.2359,-5.2387,-5.2406,-5.2234,-5.2237,-5.224,-5.2359,0,-5.1967,-5.2057,-5.2038,-5.2125,-5.2165,-5.2123,-5.2168,-5.2181,-5.2177,-5.221,-5.2204,-5.2241,-5.2194,-5.2203,-5.224,-5.2236,-5.2298,-5.2227,-5.2274,-5.2276,-5.2273,-5.2426,-5.2455,-5.2567,-5.2374,-5.2376,-5.2378,0,-5.2113,-5.2138,-5.2231,-5.224,-5.2256,-5.2296,-5.2324,-5.2356,-5.237,-5.2364,-5.2382,-5.2357,-5.2407,-5.2349,-5.2419,-5.2371,-5.2389,-5.239,-5.2394,-5.2398,-5.2333,-5.2435,-5.2602,-5.2619,-5.2401,-5.24,-5.2398,0,-5.2222,-5.2279,-5.2342,-5.2353,-5.2365,-5.2395,-5.2401,-5.2413,-5.2433,-5.2457,-5.247,-5.2499,-5.2515,-5.2538,-5.2521,-5.248,-5.2594,-5.2534,-5.2591,-5.2591,-5.2617,-5.2616,-5.279,-5.2628,-5.2627,-5.2627,-5.2627,0,-5.2352,-5.2411,-5.2392,-5.2431,-5.2495,-5.2472,-5.2536,-5.2537,-5.2548,-5.2586,-5.2551,-5.2588,-5.2563,-5.2597,-5.2583,-5.2644,-5.2651,-5.2648,-5.2644,-5.2652,-5.2652,-5.2663,-5.2655,-5.2631,-5.263,-5.2629,-5.2629,0,-5.2485,-5.2475,-5.2541,-5.2548,-5.2551,-5.2598,-5.2603,-5.264,-5.2634,-5.2682,-5.2692,-5.2683,-5.2722,-5.2707,-5.2747,-5.2738,-5.2816,-5.2801,-5.2812,-5.2808,-5.2866,-5.2861,-5.3055,-5.3079,-5.29,-5.2902,-5.2903,0,-5.2569,-5.2614,-5.2626,-5.265,-5.2659,-5.2697,-5.2719,-5.2698,-5.2722,-5.2742,-5.2776,-5.2812,-5.284,-5.2903,-5.29,-5.2931,-5.2917,-5.2982,-5.2921,-5.2928,-5.2919,-5.2917,-5.2922,-5.2995,-5.2997,-5.2999,-5.3,0,-5.272,-5.2714,-5.2746,-5.2778,-5.2805,-5.2828,-5.2848,-5.287,-5.285,-5.2878,-5.2919,-5.294,-5.2983,-5.3019,-5.3047,-5.3052,-5.3024,-5.3019,-5.3034,-5.3043,-5.3048,-5.3047,-5.2846,-5.3015,-5.3013,-5.3012,-5.3012,-5.3011,-5.2832,-5.287,-5.2885,-5.2923,-5.2937,-5.2957,-5.2992,-5.2991,-5.3025,-5.3059,-5.3044,-5.3091,-5.3104,-5.314,-5.3149,-5.3185,-5.3159,-5.3181,-5.3186,-5.3192,-5.32,-5.3042,-5.319,-5.3189,-5.3189,-5.3189,-5.3188,0,-5.2982,-5.299,-5.3025,-5.3056,-5.3086,-5.3057,-5.3079,-5.3105,-5.3147,-5.3163,-5.3192,-5.3239,-5.3274,-5.3274,-5.3307,-5.3335,-5.3323,-5.3345,-5.3343,-5.3345,-5.3221,-5.3205,-5.3354,-5.3354,-5.3354,-5.3354,-5.3354,-5.3354,-5.3063,-5.3127,-5.3122,-5.3192,-5.3199,-5.3246,-5.3261,-5.3279,-5.3292,-5.3347,-5.3376,-5.3377,-5.3386,-5.342,-5.3451,-5.345,-5.3464,-5.3491,-5.3485,-5.337,-5.3353,-5.3337,-5.3323,-5.3494,-5.3494,-5.3606,-5.3607,-5.3608]}]]